Rochester, MN

4:03 AM CDT on September 22, 2019 (GMT -0500)
Rochester International

Weather History for KRST - August, 2019

Change the Weather History Date:

Thursday, August 22, 2019

  Actual Average Record
Temperature  
Mean Temperature 64 °F 69 °F  
Max Temperature 75 °F 78 °F 96 °F (1916)
Min Temperature 52 °F 59 °F 38 °F (1920)
Degree Days  
Heating Degree Days 2 1  
Month to date heating degree days 2 19  
Since 1 July heating degree days 3 30  
Cooling Degree Days 0 5  
Month to date cooling degree days 84 120  
Year to date cooling degree days 420 491  
Growing Degree Days 14 (Base 50)    
Moisture  
Dew Point 52 °F    
Average Humidity 71    
Maximum Humidity 96    
Minimum Humidity 46    
Precipitation  
Precipitation 0.00 in 0.15 in 2.43 in (1973)
Month to date precipitation 1.13 3.25  
Year to date precipitation 36.61 22.92  
Snow  
Snow 0.00 in 0.00 in 0.00 in (2012)
Month to date snowfall 0.0 0.0  
Since 1 July snowfall 0.0 0.0  
Snow Depth 0.00 in    
Sea Level Pressure  
Sea Level Pressure 30.08 in    
Wind  
Wind Speed 6 mph ()    
Max Wind Speed 14 mph    
Max Gust Speed 20 mph    
Visibility 10.0 miles    
Events      
T = Trace of Precipitation, MM = Missing Value Source: Averaged Metar Reports

Daily Weather History Graph

Daily Weather History Graph

Search for Another Location

Airport or City:

Astronomy

Aug. 22, 2019 Rise Set
Actual Time 6:21 AM CDT 8:03 PM CDT
Civil Twilight 5:51 AM CDT 8:33 PM CDT
Nautical Twilight 5:14 AM CDT 9:10 PM CDT
Astronomical Twilight 4:33 AM CDT 9:50 PM CDT
Moon 11:39 PM CDT 1:11 PM CDT
Length of Visible Light 14h 42m
Length of Day
13h 41m
Waning Gibbous, 59% of the Moon is Illuminated
Aug 22
Waning Gibbous
Aug 23
Last Quarter
Aug 30
New
Sep 5
First Quarter
Sep 13
Full

Hourly Weather History & Observations

Time (CDT) Temp. Dew Point Humidity Pressure Visibility Wind Dir Wind Speed Gust Speed Precip Events Conditions
12:54 AM 55.0 °F 53.1 °F 93% 30.06 in 10.0 mi WSW 3.5 mph - N/A   Clear
1:54 AM 54.0 °F 52.0 °F 93% 30.06 in 10.0 mi West 5.8 mph - N/A   Clear
2:54 AM 54.0 °F 52.0 °F 93% 30.05 in 10.0 mi West 6.9 mph - N/A   Clear
3:54 AM 54.0 °F 52.0 °F 93% 30.04 in 10.0 mi West 6.9 mph - N/A   Clear
4:54 AM 53.1 °F 51.1 °F 93% 30.04 in 10.0 mi WNW 6.9 mph - N/A   Clear
5:54 AM 52.0 °F 50.0 °F 93% 30.04 in 10.0 mi West 6.9 mph - N/A   Clear
6:54 AM 53.1 °F 51.1 °F 93% 30.06 in 10.0 mi NW 6.9 mph - N/A   Clear
7:54 AM 57.0 °F 54.0 °F 89% 30.07 in 10.0 mi NNW 4.6 mph - N/A   Clear
8:54 AM 64.0 °F 55.0 °F 73% 30.08 in 10.0 mi North 4.6 mph - N/A   Clear
9:54 AM 66.0 °F 57.0 °F 73% 30.09 in 10.0 mi Variable 3.5 mph - N/A   Clear
10:54 AM 70.0 °F 54.0 °F 57% 30.09 in 10.0 mi North 9.2 mph - N/A   Clear
11:54 AM 72.0 °F 54.0 °F 53% 30.10 in 10.0 mi NW 8.1 mph - N/A   Clear
12:54 PM 72.0 °F 53.1 °F 51% 30.08 in 10.0 mi North 9.2 mph - N/A   Scattered Clouds
1:54 PM 72.0 °F 52.0 °F 49% 30.08 in 10.0 mi NW 11.5 mph - N/A   Scattered Clouds
2:54 PM 75.0 °F 53.1 °F 46% 30.08 in 10.0 mi NNW 9.2 mph - N/A   Partly Cloudy
3:54 PM 72.0 °F 52.0 °F 49% 30.07 in 10.0 mi NW 10.4 mph - N/A   Clear
4:54 PM 72.0 °F 50.0 °F 46% 30.07 in 10.0 mi NNW 9.2 mph - N/A   Clear
5:54 PM 70.0 °F 48.9 °F 47% 30.08 in 10.0 mi NNW 8.1 mph - N/A   Clear
6:54 PM 68.0 °F 50.0 °F 52% 30.08 in 10.0 mi North 8.1 mph - N/A   Clear
7:54 PM 63.0 °F 52.0 °F 67% 30.09 in 10.0 mi NNE 5.8 mph - N/A   Clear
8:54 PM 61.0 °F 51.1 °F 70% 30.09 in 10.0 mi NNE 4.6 mph - N/A   Clear
9:54 PM 59.0 °F 51.1 °F 75% 30.11 in 10.0 mi North 3.5 mph - N/A   Clear
10:54 PM 57.9 °F 52.0 °F 81% 30.12 in 10.0 mi NNE 4.6 mph - N/A   Clear
11:54 PM 57.9 °F 52.0 °F 81% 30.12 in 10.0 mi NNE 5.8 mph - N/A   Mostly Cloudy